Time,TemperatureF,DewpointF,PressureIn,WindDirection,WindDirectionDegrees,WindSpeedMPH,WindSpeedGustMPH,Humidity,HourlyPrecipIn,Conditions,Clouds,dailyrainin,SolarRadiationWatts/m^2,SoftwareType,DateUTC
2013-01-20 00:02:00,35.0,9.0,-100.00,WSW,256,2.0,5.0,33,-99.99,,,0.00,0.000000,,2013-01-20 07:02:00,
2013-01-20 00:32:00,35.0,9.0,-100.00,WSW,256,2.0,5.0,33,-99.99,,,0.00,0.000000,,2013-01-20 07:32:00,
2013-01-20 00:42:00,35.0,9.0,-100.00,WSW,256,2.0,5.0,33,-99.99,,,0.00,0.000000,,2013-01-20 07:42:00,
2013-01-20 00:52:00,35.0,9.0,-100.00,WSW,256,2.0,5.0,33,-99.99,,,0.00,0.000000,,2013-01-20 07:52:00,
2013-01-20 01:02:00,32.0,7.0,-100.00,NW,325,2.0,5.0,34,-99.99,,,0.00,0.000000,,2013-01-20 08:02:00,
2013-01-20 01:22:00,32.0,7.0,-100.00,NW,325,2.0,5.0,34,-99.99,,,0.00,0.000000,,2013-01-20 08:22:00,
2013-01-20 01:32:00,32.0,7.0,-100.00,NW,325,2.0,5.0,34,-99.99,,,0.00,0.000000,,2013-01-20 08:32:00,
2013-01-20 01:42:00,32.0,7.0,-100.00,NW,325,2.0,5.0,34,-99.99,,,0.00,0.000000,,2013-01-20 08:42:00,
2013-01-20 01:52:00,32.0,7.0,-100.00,NW,325,2.0,5.0,34,-99.99,,,0.00,0.000000,,2013-01-20 08:52:00,
2013-01-20 02:02:00,32.0,8.0,-100.00,NNW,345,3.0,5.0,36,-99.99,,,0.00,0.000000,,2013-01-20 09:02:00,
2013-01-20 02:33:00,32.0,8.0,-100.00,NNW,345,3.0,5.0,36,-99.99,,,0.00,0.000000,,2013-01-20 09:33:00,
2013-01-20 02:42:00,32.0,8.0,-100.00,NNW,345,3.0,5.0,36,-99.99,,,0.00,0.000000,,2013-01-20 09:42:00,
2013-01-20 02:52:00,32.0,8.0,-100.00,NNW,345,3.0,5.0,36,-99.99,,,0.00,0.000000,,2013-01-20 09:52:00,
2013-01-20 03:02:00,34.0,8.0,-100.00,West,271,3.0,6.0,33,-99.99,,,0.00,0.000000,,2013-01-20 10:02:00,
2013-01-20 03:32:00,34.0,8.0,-100.00,West,271,3.0,6.0,33,-99.99,,,0.00,0.000000,,2013-01-20 10:32:00,
2013-01-20 03:42:00,34.0,8.0,-100.00,West,271,3.0,6.0,33,-99.99,,,0.00,0.000000,,2013-01-20 10:42:00,
2013-01-20 03:52:00,34.0,8.0,-100.00,West,271,3.0,6.0,33,-99.99,,,0.00,0.000000,,2013-01-20 10:52:00,
2013-01-20 04:02:00,34.0,9.0,-100.00,WNW,297,3.0,8.0,34,-99.99,,,0.00,0.000000,,2013-01-20 11:02:00,
2013-01-20 04:22:00,34.0,9.0,-100.00,WNW,297,3.0,8.0,34,-99.99,,,0.00,0.000000,,2013-01-20 11:22:00,
2013-01-20 04:33:00,34.0,9.0,-100.00,WNW,297,3.0,8.0,34,-99.99,,,0.00,0.000000,,2013-01-20 11:33:00,
2013-01-20 04:43:00,34.0,9.0,-100.00,WNW,297,3.0,8.0,34,-99.99,,,0.00,0.000000,,2013-01-20 11:43:00,
2013-01-20 04:53:00,34.0,9.0,-100.00,WNW,297,3.0,8.0,34,-99.99,,,0.00,0.000000,,2013-01-20 11:53:00,
2013-01-20 05:02:00,31.0,5.0,-100.00,NW,310,2.0,5.0,33,-99.99,,,0.00,0.000000,,2013-01-20 12:02:00,
2013-01-20 05:33:00,31.0,5.0,-100.00,NW,310,2.0,5.0,33,-99.99,,,0.00,0.000000,,2013-01-20 12:33:00,
2013-01-20 05:43:00,31.0,5.0,-100.00,NW,310,2.0,5.0,33,-99.99,,,0.00,0.000000,,2013-01-20 12:43:00,
2013-01-20 05:53:00,31.0,5.0,-100.00,NW,310,2.0,5.0,33,-99.99,,,0.00,0.000000,,2013-01-20 12:53:00,
2013-01-20 06:02:00,32.0,9.0,-100.00,NNW,330,4.0,7.0,37,0.00,,,0.00,0.000000,,2013-01-20 13:02:00,
2013-01-20 06:33:00,32.0,9.0,-100.00,NNW,330,4.0,7.0,37,0.00,,,0.00,0.000000,,2013-01-20 13:33:00,
2013-01-20 06:43:00,32.0,9.0,-100.00,NNW,330,4.0,7.0,37,0.00,,,0.00,0.000000,,2013-01-20 13:43:00,
2013-01-20 06:52:00,32.0,9.0,-100.00,NNW,330,4.0,7.0,37,0.00,,,0.00,0.000000,,2013-01-20 13:52:00,
2013-01-20 07:02:00,33.0,6.0,-100.00,NNW,333,2.0,8.0,31,0.00,,,0.00,0.000000,,2013-01-20 14:02:00,
2013-01-20 07:23:00,33.0,6.0,-100.00,NNW,333,2.0,8.0,31,0.00,,,0.00,0.000000,,2013-01-20 14:23:00,
2013-01-20 07:33:00,33.0,6.0,-100.00,NNW,333,2.0,8.0,31,0.00,,,0.00,0.000000,,2013-01-20 14:33:00,
2013-01-20 07:43:00,33.0,6.0,-100.00,NNW,333,2.0,8.0,31,0.00,,,0.00,0.000000,,2013-01-20 14:43:00,
2013-01-20 07:53:00,33.0,6.0,-100.00,NNW,333,2.0,8.0,31,0.00,,,0.00,0.000000,,2013-01-20 14:53:00,
2013-01-20 08:02:00,33.0,6.0,-100.00,WSW,248,1.0,5.0,32,-99.99,,,0.00,0.000000,,2013-01-20 15:02:00,
2013-01-20 08:33:00,33.0,6.0,-100.00,WSW,248,1.0,5.0,32,-99.99,,,0.00,0.000000,,2013-01-20 15:33:00,
2013-01-20 08:43:00,33.0,6.0,-100.00,WSW,248,1.0,5.0,32,-99.99,,,0.00,0.000000,,2013-01-20 15:43:00,
2013-01-20 08:53:00,33.0,6.0,-100.00,WSW,248,1.0,5.0,32,-99.99,,,0.00,0.000000,,2013-01-20 15:53:00,
2013-01-20 09:02:00,39.0,10.0,-100.00,ENE,60,2.0,4.0,30,-99.99,,,-99.99,31.000000,,2013-01-20 16:02:00,
2013-01-20 09:33:00,39.0,10.0,-100.00,ENE,60,2.0,4.0,30,-99.99,,,-99.99,31.000000,,2013-01-20 16:33:00,
2013-01-20 10:02:00,39.0,10.0,-100.00,East,97,3.0,5.0,30,-99.99,,,0.00,92.000000,,2013-01-20 17:02:00,
2013-01-20 10:33:00,39.0,10.0,-100.00,East,97,3.0,5.0,30,-99.99,,,0.00,92.000000,,2013-01-20 17:33:00,
2013-01-20 11:02:00,41.0,15.0,-100.00,SSE,168,3.0,7.0,34,-99.99,,,0.00,65.000000,,2013-01-20 18:02:00,
2013-01-20 11:24:00,41.0,15.0,-100.00,SSE,168,3.0,7.0,34,-99.99,,,0.00,65.000000,,2013-01-20 18:24:00,
2013-01-20 11:33:00,41.0,15.0,-100.00,SSE,168,3.0,7.0,34,-99.99,,,0.00,65.000000,,2013-01-20 18:33:00,
2013-01-20 12:02:00,47.0,15.0,-100.00,SE,144,4.0,9.0,27,-99.99,,,0.00,349.000000,,2013-01-20 19:02:00,
2013-01-20 12:33:00,47.0,15.0,-100.00,SE,144,4.0,9.0,27,-99.99,,,0.00,349.000000,,2013-01-20 19:33:00,
2013-01-20 12:43:00,47.0,15.0,-100.00,SE,144,4.0,9.0,27,-99.99,,,0.00,349.000000,,2013-01-20 19:43:00,
2013-01-20 12:52:00,47.0,15.0,-100.00,SE,144,4.0,9.0,27,-99.99,,,0.00,349.000000,,2013-01-20 19:52:00,
2013-01-20 13:33:00,51.0,16.0,-100.00,SSE,153,5.0,14.0,24,-99.99,,,0.00,509.000000,,2013-01-20 20:33:00,
2013-01-20 13:42:00,51.0,16.0,-100.00,SSE,153,5.0,14.0,24,-99.99,,,0.00,509.000000,,2013-01-20 20:42:00,
2013-01-20 13:53:00,51.0,16.0,-100.00,SSE,153,5.0,14.0,24,-99.99,,,0.00,509.000000,,2013-01-20 20:53:00,
2013-01-20 14:02:00,48.0,15.0,-100.00,SW,222,4.0,11.0,26,0.00,,,0.00,454.000000,,2013-01-20 21:02:00,
2013-01-20 14:33:00,48.0,15.0,-100.00,SW,222,4.0,11.0,26,0.00,,,0.00,454.000000,,2013-01-20 21:33:00,
2013-01-20 14:43:00,48.0,15.0,-100.00,SW,222,4.0,11.0,26,0.00,,,0.00,454.000000,,2013-01-20 21:43:00,
2013-01-20 14:53:00,48.0,15.0,-100.00,SW,222,4.0,11.0,26,0.00,,,0.00,454.000000,,2013-01-20 21:53:00,
2013-01-20 16:02:00,40.0,15.0,-100.00,WNW,287,3.0,10.0,36,-99.99,,,0.00,85.000000,,2013-01-20 23:02:00,
2013-01-20 16:23:00,40.0,15.0,-100.00,WNW,287,3.0,10.0,36,-99.99,,,0.00,85.000000,,2013-01-20 23:23:00,
2013-01-20 16:33:00,40.0,15.0,-100.00,WNW,287,3.0,10.0,36,-99.99,,,0.00,85.000000,,2013-01-20 23:33:00,
2013-01-20 16:43:00,40.0,15.0,-100.00,WNW,287,3.0,10.0,36,-99.99,,,0.00,85.000000,,2013-01-20 23:43:00,
2013-01-20 16:53:00,40.0,15.0,-100.00,WNW,287,3.0,10.0,36,-99.99,,,0.00,85.000000,,2013-01-20 23:53:00,
2013-01-20 17:02:00,39.0,13.0,-100.00,North,354,2.0,6.0,34,0.00,,,0.00,45.000000,,2013-01-21 00:02:00,
2013-01-20 17:23:00,39.0,13.0,-100.00,North,354,2.0,6.0,34,0.00,,,0.00,45.000000,,2013-01-21 00:23:00,
2013-01-20 17:33:00,39.0,13.0,-100.00,North,354,2.0,6.0,34,0.00,,,0.00,45.000000,,2013-01-21 00:33:00,
2013-01-20 17:43:00,39.0,13.0,-100.00,North,354,2.0,6.0,34,0.00,,,0.00,45.000000,,2013-01-21 00:43:00,
2013-01-20 17:53:00,39.0,13.0,-100.00,North,354,2.0,6.0,34,0.00,,,0.00,45.000000,,2013-01-21 00:53:00,
2013-01-20 18:02:00,37.0,13.0,-100.00,WNW,298,3.0,8.0,36,0.00,,,0.00,5.000000,,2013-01-21 01:02:00,
2013-01-20 18:33:00,37.0,13.0,-100.00,WNW,298,3.0,8.0,36,0.00,,,0.00,5.000000,,2013-01-21 01:33:00,
2013-01-20 18:43:00,37.0,13.0,-100.00,WNW,298,3.0,8.0,36,0.00,,,0.00,5.000000,,2013-01-21 01:43:00,
2013-01-20 18:53:00,37.0,13.0,-100.00,WNW,298,3.0,8.0,36,0.00,,,0.00,5.000000,,2013-01-21 01:53:00,
2013-01-20 19:02:00,36.0,13.0,-100.00,NW,310,3.0,8.0,38,0.00,,,-99.99,0.000000,,2013-01-21 02:02:00,
2013-01-20 19:23:00,36.0,13.0,-100.00,NW,310,3.0,8.0,38,0.00,,,-99.99,0.000000,,2013-01-21 02:23:00,
2013-01-20 19:33:00,36.0,13.0,-100.00,NW,310,3.0,8.0,38,0.00,,,-99.99,0.000000,,2013-01-21 02:33:00,
2013-01-20 19:43:00,36.0,13.0,-100.00,NW,310,3.0,8.0,38,0.00,,,-99.99,0.000000,,2013-01-21 02:43:00,
2013-01-20 19:53:00,36.0,13.0,-100.00,NW,310,3.0,8.0,38,0.00,,,-99.99,0.000000,,2013-01-21 02:53:00,
2013-01-20 20:02:00,36.0,11.0,-100.00,NW,316,3.0,9.0,35,0.00,,,0.00,0.000000,,2013-01-21 03:02:00,
2013-01-20 20:33:00,36.0,11.0,-100.00,NW,316,3.0,9.0,35,0.00,,,0.00,0.000000,,2013-01-21 03:33:00,
2013-01-20 20:43:00,36.0,11.0,-100.00,NW,316,3.0,9.0,35,0.00,,,0.00,0.000000,,2013-01-21 03:43:00,
2013-01-20 20:53:00,36.0,11.0,-100.00,NW,316,3.0,9.0,35,0.00,,,0.00,0.000000,,2013-01-21 03:53:00,
2013-01-20 21:02:00,36.0,12.0,-100.00,NNE,15,2.0,5.0,36,0.00,,,0.00,0.000000,,2013-01-21 04:02:00,
2013-01-20 21:33:00,36.0,12.0,-100.00,NNE,15,2.0,5.0,36,0.00,,,0.00,0.000000,,2013-01-21 04:33:00,
2013-01-20 21:43:00,36.0,12.0,-100.00,NNE,15,2.0,5.0,36,0.00,,,0.00,0.000000,,2013-01-21 04:43:00,
2013-01-20 21:53:00,36.0,12.0,-100.00,NNE,15,2.0,5.0,36,0.00,,,0.00,0.000000,,2013-01-21 04:53:00,
2013-01-20 22:02:00,35.0,9.0,-100.00,WNW,284,2.0,4.0,34,-99.99,,,0.00,0.000000,,2013-01-21 05:02:00,
2013-01-20 22:23:00,35.0,9.0,-100.00,WNW,284,2.0,4.0,34,-99.99,,,0.00,0.000000,,2013-01-21 05:23:00,
2013-01-20 22:34:00,35.0,9.0,-100.00,WNW,284,2.0,4.0,34,-99.99,,,0.00,0.000000,,2013-01-21 05:34:00,
2013-01-20 22:42:00,35.0,9.0,-100.00,WNW,284,2.0,4.0,34,-99.99,,,0.00,0.000000,,2013-01-21 05:42:00,
2013-01-20 22:53:00,35.0,9.0,-100.00,WNW,284,2.0,4.0,34,-99.99,,,0.00,0.000000,,2013-01-21 05:53:00,
2013-01-20 23:02:00,34.0,7.0,-100.00,NNW,340,2.0,5.0,32,-99.99,,,0.00,0.000000,,2013-01-21 06:02:00,
2013-01-20 23:33:00,34.0,7.0,-100.00,NNW,340,2.0,5.0,32,-99.99,,,0.00,0.000000,,2013-01-21 06:33:00,
2013-01-20 23:43:00,34.0,7.0,-100.00,NNW,340,2.0,5.0,32,-99.99,,,0.00,0.000000,,2013-01-21 06:43:00,
2013-01-20 23:53:00,34.0,7.0,-100.00,NNW,340,2.0,5.0,32,-99.99,,,0.00,0.000000,,2013-01-21 06:53:00,